Snowfall_Accumulation
nan nan nan nan nan nan nan nan nan nan nan nan nan nan nan nan nan 0.0 0.0 0.0 0.1 2.0 0.2 0.0 0.0 0.5 0.3 1.2 4.7 3.9 5.3 3.7 4.6 9.7 17.7 0.9 11.2 1.3 1.7 0.3 0.5 1.3 9.2 20.1 13.4 13.6 16.0 0.5 0.2 1.7 1.7 1.1 1.3 0.4
nan nan nan nan nan nan nan nan nan nan nan nan nan nan nan nan nan nan 0.0 0.0 0.0 1.6 0.8 0.0 0.0 0.0 0.0 0.0 1.4 2.8 2.5 4.6 2.3 2.9 8.0 7.6 31.7 3.2 2.6 21.4 0.1 5.2 1.7 8.9 3.9 4.9 0.1 0.2 0.4 0.1 0.4 1.4 0.8 0.3
nan nan nan nan nan nan nan nan nan nan nan nan nan nan nan nan nan nan 0.0 0.0 0.1 2.2 3.3 3.2 2.3 0.0 0.0 0.0 0.0 3.7 2.7 0.0 0.1 0.0 4.9 10.3 27.8 2.8 19.6 4.6 1.8 0.6 0.0 1.6 2.3 0.1 0.1 0.1 0.0 0.0 0.1 0.2 0.1 0.1
nan nan nan nan nan nan nan nan nan nan nan nan nan nan nan nan nan nan 0.0 0.0 0.0 1.9 18.7 3.5 0.1 0.0 0.0 0.0 0.0 0.0 0.0 0.0 0.0 0.1 4.6 7.3 26.5 0.6 5.2 1.9 3.2 0.5 0.4 1.0 1.5 0.0 0.0 0.0 0.0 0.0 0.0 0.0 0.0 0.0
nan nan nan nan nan nan nan nan nan nan nan nan nan nan nan nan nan nan 0.0 0.0 0.0 2.2 13.5 8.6 1.5 0.0 0.0 0.0 0.0 0.0 0.0 0.0 0.1 1.8 5.6 18.4 1.9 7.3 3.7 0.4 4.1 0.0 0.0 0.2 2.3 0.0 0.0 0.0 0.0 0.0 0.0 0.0 0.3 0.3
nan nan nan nan nan nan nan nan nan nan nan nan nan nan nan nan nan 0.0 4.5 0.0 0.0 0.0 9.4 21.9 0.2 2.3 0.3 0.0 0.0 0.0 0.0 0.0 0.0 0.8 0.9 0.4 0.0 1.2 18.3 20.2 0.0 0.0 0.0 0.0 0.0 0.0 0.0 0.0 0.0 0.0 0.0 0.3 0.3 0.5
nan nan nan nan nan nan nan nan nan nan nan nan nan nan nan nan 0.0 2.6 2.3 0.0 nan 0.0 10.0 22.8 18.2 3.7 0.6 0.6 1.3 0.0 0.0 0.0 0.3 0.7 4.1 0.2 0.0 0.7 6.0 15.0 0.0 0.0 0.0 0.0 0.0 0.0 0.0 0.0 0.0 0.0 0.3 0.4 0.4 0.7
nan nan nan nan nan nan nan nan nan nan nan nan nan nan nan nan nan 1.7 0.0 nan nan 0.9 7.7 22.6 27.7 19.0 1.8 3.2 4.4 0.0 0.0 0.0 0.8 0.2 2.5 3.2 0.1 0.4 7.2 0.0 0.0 0.0 0.0 0.0 0.0 0.0 0.0 0.0 0.4 1.1 0.9 0.9 2.3 1.2
nan nan nan nan nan nan nan nan nan nan nan nan nan nan 0.0 0.2 5.7 0.9 nan nan 0.0 2.1 19.0 15.9 35.0 40.4 0.0 0.8 0.4 2.7 0.1 7.7 0.0 1.5 0.4 5.3 16.4 10.7 3.6 0.0 0.0 0.0 0.9 0.9 0.8 1.7 2.1 1.7 1.5 1.2 1.1 1.2 1.5 0.8
nan nan nan nan nan nan nan nan nan nan nan nan 0.3 4.6 9.2 3.3 nan nan 2.0 9.5 20.3 19.3 19.3 22.6 12.3 24.8 0.0 0.4 9.9 10.0 6.7 15.1 19.2 19.9 0.2 8.5 12.3 0.6 0.0 0.9 0.8 0.8 0.8 1.0 3.1 3.9 4.3 4.5 2.4 1.3 1.7 1.1 1.2 1.4
nan nan nan nan nan nan nan nan nan nan nan 3.2 9.5 6.3 0.1 nan 1.6 4.8 12.3 10.9 3.2 14.1 3.6 15.4 10.2 10.1 3.6 24.4 21.7 0.4 14.6 12.0 12.5 19.0 17.8 19.6 17.1 1.4 0.9 0.9 0.0 0.0 0.0 1.0 1.6 1.4 1.6 2.6 1.8 1.4 1.2 2.8 2.3 2.7
nan nan nan nan nan nan nan nan nan 0.0 1.9 1.9 2.9 1.1 1.0 6.1 11.3 13.1 14.6 10.6 9.4 15.0 17.8 13.7 11.6 7.4 4.9 3.5 12.4 9.4 9.2 9.5 11.0 12.2 17.0 13.0 2.9 1.0 1.4 1.1 0.9 0.8 1.7 2.6 2.4 2.6 1.3 1.4 1.9 2.3 3.2 3.6 3.4 3.1
nan nan nan nan nan nan nan nan nan nan nan 2.6 9.0 14.2 4.5 14.5 42.1 18.2 14.0 25.2 27.9 22.8 27.2 22.8 26.1 4.8 8.0 3.1 7.5 3.2 16.9 12.4 11.5 13.7 10.3 5.2 1.8 1.8 2.6 3.0 3.2 1.9 2.2 3.7 3.8 3.7 3.5 3.7 3.8 4.5 4.3 3.7 3.7 4.1
nan nan nan nan nan nan nan nan nan 0.0 7.3 12.2 22.3 47.4 16.9 20.7 10.9 36.4 27.1 24.2 12.3 9.0 12.3 7.9 23.6 11.3 13.1 8.9 0.6 18.4 8.7 7.3 16.2 9.6 9.6 6.5 3.4 6.4 4.0 3.8 6.8 5.6 5.8 4.2 6.2 4.9 3.9 3.9 4.0 4.3 4.9 4.6 5.3 5.4
nan nan nan nan nan nan nan nan nan 0.2 11.5 14.5 13.0 29.6 21.7 20.6 18.2 21.5 25.9 22.3 17.5 11.2 8.0 13.7 18.9 0.1 15.3 10.9 0.7 8.8 16.5 16.4 8.9 9.1 8.4 6.3 4.7 4.7 4.3 5.4 7.0 6.8 5.3 5.1 5.8 6.6 4.6 4.4 4.9 5.8 7.7 7.6 8.2 6.8
nan nan 1.6 nan nan nan nan nan 3.6 7.5 13.4 15.1 17.4 18.5 36.1 25.7 25.2 27.4 26.2 22.9 8.0 4.4 10.3 13.8 15.6 13.9 13.2 9.0 9.8 12.5 12.0 9.3 12.6 17.4 11.8 7.5 7.7 6.4 7.0 7.8 7.4 8.1 7.8 7.0 7.5 6.8 4.9 5.7 6.0 6.9 8.9 7.8 7.1 7.5
nan 4.0 nan nan nan nan nan 8.4 12.6 14.0 15.3 17.5 45.3 34.2 19.7 19.2 16.1 18.8 17.0 7.8 2.3 12.5 34.7 14.5 13.1 10.5 6.7 10.3 7.7 10.9 19.5 15.8 18.9 17.7 10.4 8.6 8.0 9.3 10.1 9.7 9.5 10.3 9.9 10.3 10.3 10.9 8.1 8.8 8.9 9.5 10.4 9.5 12.6 12.7
6.3 1.4 nan nan nan nan 16.0 20.6 12.0 11.8 16.5 10.0 14.7 25.2 15.6 12.8 16.8 18.0 13.7 4.2 5.9 9.8 13.8 14.0 6.7 10.9 14.3 10.0 16.6 13.6 11.8 16.8 14.2 11.8 7.9 9.0 10.8 13.3 12.7 11.6 11.1 11.5 12.0 12.1 11.8 12.0 12.1 12.1 11.2 11.8 12.2 11.0 12.1 12.4
4.9 1.4 nan nan 2.6 14.4 11.9 15.9 20.2 12.2 16.3 21.8 11.3 9.2 11.0 16.9 10.3 7.8 12.0 6.0 6.5 8.3 13.8 15.1 15.5 16.6 15.8 13.7 17.6 18.8 19.3 16.0 11.9 4.3 5.0 6.3 4.2 10.2 11.5 11.7 10.8 8.9 9.9 13.0 12.7 14.7 15.2 15.6 14.4 12.3 11.4 10.6 10.8 11.2
nan nan nan nan nan 10.0 13.7 14.9 16.1 11.4 21.6 10.8 15.6 19.3 10.2 8.9 10.7 19.8 20.3 9.5 7.5 20.8 18.5 19.1 26.1 22.8 12.0 11.7 9.4 12.1 9.4 6.2 9.0 15.8 10.8 4.5 4.1 9.4 11.9 13.6 10.4 10.5 12.6 13.6 15.9 7.1 13.6 12.6 11.6 12.6 14.1 12.2 13.5 13.2
nan nan nan 8.6 10.5 11.1 12.2 11.7 12.5 11.9 12.8 10.5 15.4 9.2 9.5 11.6 20.4 34.6 31.2 7.0 15.4 8.1 10.6 25.0 19.5 20.9 13.0 19.1 13.1 22.2 7.0 6.0 9.0 19.7 16.4 10.7 7.6 10.1 12.4 13.4 11.4 12.0 13.2 14.8 17.3 15.0 10.6 15.4 13.1 13.3 19.6 18.5 17.9 14.9
5.2 nan 9.9 6.7 6.7 10.5 11.1 10.3 11.7 10.5 12.5 18.9 11.1 18.1 20.2 33.9 32.7 29.2 14.4 19.5 10.6 17.2 13.9 12.8 18.1 22.2 24.7 27.4 30.5 29.8 28.6 21.0 15.8 10.8 5.1 6.2 12.1 11.4 15.2 18.2 18.0 21.7 21.7 23.7 20.1 22.5 17.6 13.9 14.7 14.9 16.6 18.3 12.0 11.4
nan 4.3 4.2 8.6 10.1 17.0 26.1 11.9 12.9 14.0 15.3 15.3 19.2 12.3 19.8 27.0 20.2 7.4 9.0 16.1 23.4 9.4 24.6 26.2 27.2 28.2 29.3 31.2 30.0 30.4 28.4 27.2 25.9 21.4 20.5 19.8 19.8 19.6 21.6 21.9 19.4 26.9 23.2 15.8 14.7 16.0 15.6 5.8 9.6 10.3 10.1 10.1 11.9 12.9
nan 4.1 4.6 8.5 13.9 23.8 14.2 16.0 11.9 13.8 13.1 17.2 12.7 12.7 16.6 25.1 10.0 11.9 12.3 26.1 20.9 12.7 21.3 27.5 28.2 29.5 29.2 29.6 30.5 31.5 29.9 29.6 30.0 26.9 25.2 24.2 18.7 22.7 20.2 22.1 20.7 18.4 17.6 14.8 13.9 14.2 10.4 13.7 4.7 9.6 9.7 13.9 18.4 15.7
18.0 21.8 10.5 39.1 13.6 16.7 12.2 13.4 14.6 14.6 11.3 13.0 12.1 13.0 21.5 22.6 15.0 18.4 12.8 30.9 19.5 24.0 17.8 26.0 25.0 13.9 34.4 37.1 14.5 26.4 27.1 28.1 18.4 25.4 23.8 22.2 21.4 20.0 18.1 15.0 13.0 12.0 13.4 21.6 22.0 20.3 20.3 16.6 12.7 12.8 11.1 16.3 16.6 14.8
36.3 17.5 32.2 20.3 22.0 14.3 12.8 12.5 12.4 13.5 13.4 12.0 15.4 16.0 30.2 20.1 13.1 17.4 15.7 21.7 25.5 25.4 31.9 35.3 39.1 23.1 19.1 16.5 19.0 16.7 23.0 25.4 25.0 26.0 18.3 18.9 16.6 27.2 24.9 15.5 14.8 12.3 12.8 18.4 23.4 28.2 22.6 13.2 18.2 13.7 14.6 13.8 7.9 17.2
31.8 21.4 16.9 15.2 14.2 13.0 17.0 17.3 16.3 15.1 12.0 11.7 17.7 15.6 16.4 14.1 12.4 13.8 13.2 10.1 12.9 23.1 16.7 16.4 22.1 17.7 15.7 17.2 16.9 22.7 21.1 21.0 19.4 18.3 15.4 15.2 13.6 14.4 17.4 20.3 14.1 13.0 14.9 16.5 19.1 26.7 26.9 20.2 15.1 15.1 15.8 14.9 22.5 16.3
14.6 14.8 14.4 26.7 14.6 19.7 17.4 16.6 14.7 12.4 12.7 12.7 17.3 12.1 12.4 11.7 16.7 15.6 11.3 7.7 18.1 13.8 14.7 18.9 15.4 16.0 17.6 14.3 17.1 18.4 16.9 17.2 14.2 13.4 14.7 13.3 13.0 12.3 13.2 13.8 12.1 3.6 8.6 8.9 9.1 8.7 16.4 16.5 20.5 16.7 15.2 16.9 15.1 12.8
17.2 19.1 14.2 15.1 16.7 12.7 14.1 16.0 17.4 16.4 9.3 21.6 18.9 12.5 15.3 14.2 30.4 30.7 15.5 11.6 18.5 15.5 24.1 25.1 23.1 27.7 20.5 18.9 18.8 21.6 18.4 17.4 16.5 12.6 12.8 13.1 12.6 13.7 11.2 12.9 14.1 11.4 10.5 17.7 2.7 3.6 8.0 12.3 16.5 17.3 16.9 14.1 12.7 18.7
17.8 20.9 14.9 13.7 13.3 15.9 20.5 20.5 29.4 26.6 15.3 16.7 19.5 12.5 13.3 22.9 27.0 14.9 26.2 26.5 24.8 30.7 31.1 30.3 29.5 34.9 27.9 21.7 21.7 15.2 24.0 26.2 17.3 14.7 19.0 15.0 16.9 14.5 16.7 17.3 14.7 13.0 11.0 21.2 6.5 7.8 2.7 9.5 6.9 13.5 12.4 12.8 11.1 11.9
16.3 28.1 17.6 15.2 16.7 26.1 27.3 28.6 30.5 26.2 24.7 36.7 35.0 36.4 29.8 35.5 19.4 18.9 13.9 21.3 25.5 30.8 30.6 31.8 35.2 37.4 25.2 18.3 30.4 26.6 16.5 20.8 14.5 11.8 13.1 13.5 12.4 23.3 17.1 12.1 11.8 22.1 21.6 14.3 14.1 13.4 8.2 8.2 13.7 16.7 14.3 12.4 11.6 10.5
22.5 31.6 18.6 13.7 23.8 30.9 29.2 33.0 32.5 31.3 30.0 30.2 33.1 33.1 32.2 25.5 18.4 18.2 11.3 23.5 23.9 21.9 4.5 24.5 24.6 16.3 17.5 15.0 14.1 14.9 4.0 13.0 12.0 7.0 8.0 8.0 12.0 10.8 12.3 10.5 16.9 16.8 13.2 8.6 9.0 9.5 9.4 15.6 13.6 12.8 13.7 11.9 10.3 8.4
33.9 28.8 29.1 19.7 34.3 26.9 28.8 29.6 22.4 33.9 23.8 30.2 25.0 25.4 26.9 16.9 10.8 14.3 6.0 21.4 20.4 19.5 18.9 21.1 23.3 22.6 11.6 11.1 11.7 12.6 6.5 14.1 14.9 2.4 3.3 2.3 1.1 3.2 12.4 14.8 16.0 14.6 8.7 9.6 8.7 8.3 8.6 8.4 10.1 9.3 9.7 9.8 9.7 8.2
Water_Equivalent
nan nan nan nan nan nan nan nan nan nan nan nan nan nan nan nan nan 0.00 0.00 0.00 0.02 0.33 0.03 0.00 0.00 0.09 0.05 0.19 0.61 0.57 0.66 0.52 0.65 1.34 2.15 0.19 1.39 0.17 0.22 0.03 0.07 0.16 1.01 2.15 1.44 1.48 1.66 0.08 0.04 0.17 0.20 0.17 0.22 0.07
nan nan nan nan nan nan nan nan nan nan nan nan nan nan nan nan nan nan 0.01 0.00 0.00 0.32 0.14 0.00 0.00 0.00 0.00 0.00 0.21 0.40 0.38 0.61 0.36 0.46 1.03 1.03 4.04 0.56 0.38 2.30 0.01 0.59 0.21 0.94 0.47 0.62 0.03 0.04 0.08 0.03 0.07 0.24 0.13 0.05
nan nan nan nan nan nan nan nan nan nan nan nan nan nan nan nan nan nan 0.00 0.00 0.04 0.43 0.51 0.43 0.30 0.00 0.00 0.00 0.00 0.39 0.36 0.00 0.01 0.00 0.83 1.33 3.06 0.61 2.21 0.60 0.27 0.09 0.00 0.25 0.31 0.01 0.01 0.01 0.00 0.00 0.03 0.03 0.02 0.02
nan nan nan nan nan nan nan nan nan nan nan nan nan nan nan nan nan nan 0.00 0.00 0.00 0.38 2.02 0.38 0.01 0.00 0.00 0.00 0.00 0.00 0.00 0.00 0.00 0.02 0.57 0.88 2.85 0.10 0.60 0.25 0.46 0.09 0.09 0.17 0.22 0.01 0.00 0.00 0.00 0.00 0.00 0.00 0.01 0.00
nan nan nan nan nan nan nan nan nan nan nan nan nan nan nan nan nan nan 0.00 0.00 0.00 0.32 1.47 0.92 0.18 0.00 0.00 0.00 0.00 0.00 0.00 0.00 0.01 0.20 0.58 1.92 0.22 0.76 0.44 0.06 0.44 0.00 0.00 0.03 0.26 0.00 0.00 0.00 0.00 0.00 0.00 0.01 0.05 0.04
nan nan nan nan nan nan nan nan nan nan nan nan nan nan nan nan nan 0.00 0.69 0.00 0.00 0.00 1.24 2.26 0.03 0.27 0.04 0.00 0.00 0.00 0.00 0.00 0.01 0.10 0.10 0.05 0.00 0.14 1.84 2.08 0.00 0.00 0.00 0.00 0.00 0.00 0.00 0.00 0.00 0.00 0.00 0.04 0.04 0.06
nan nan nan nan nan nan nan nan nan nan nan nan nan nan nan nan 0.00 0.47 0.34 0.00 nan 0.00 1.27 2.36 1.90 0.46 0.07 0.07 0.16 0.00 0.00 0.00 0.04 0.09 0.43 0.02 0.00 0.08 0.61 1.50 0.00 0.00 0.00 0.00 0.00 0.00 0.00 0.00 0.00 0.00 0.04 0.05 0.05 0.09
nan nan nan nan nan nan nan nan nan nan nan nan nan nan nan nan nan 0.33 0.00 nan nan 0.21 1.14 2.32 2.94 2.00 0.19 0.38 0.46 0.00 0.00 0.01 0.10 0.02 0.26 0.33 0.01 0.05 0.70 0.00 0.00 0.00 0.00 0.00 0.00 0.00 0.00 0.00 0.05 0.14 0.11 0.11 0.28 0.14
nan nan nan nan nan nan nan nan nan nan nan nan nan nan 0.00 0.04 0.83 0.14 nan nan 0.00 0.32 2.03 1.67 3.75 4.36 0.00 0.08 0.05 0.30 0.01 0.77 0.00 0.15 0.04 0.54 1.70 1.03 0.37 0.00 0.00 0.00 0.09 0.08 0.08 0.17 0.22 0.18 0.16 0.13 0.12 0.14 0.17 0.10
nan nan nan nan nan nan nan nan nan nan nan nan 0.07 0.74 1.06 0.46 nan nan 0.33 1.21 2.56 2.54 2.45 2.35 1.27 2.60 0.00 0.04 1.05 1.03 0.69 1.55 1.95 2.07 0.02 0.85 1.26 0.06 0.00 0.09 0.08 0.08 0.08 0.10 0.31 0.39 0.43 0.45 0.24 0.13 0.17 0.12 0.13 0.16
nan nan nan nan nan nan nan nan nan nan nan 0.55 1.18 0.70 0.01 nan 0.22 0.57 1.27 1.10 0.33 1.42 0.37 1.60 1.05 1.03 0.39 2.60 2.29 0.05 1.46 1.21 1.16 1.97 1.83 1.99 1.75 0.15 0.09 0.09 0.00 0.00 0.00 0.10 0.14 0.12 0.14 0.25 0.18 0.14 0.13 0.29 0.25 0.30
nan nan nan nan nan nan nan nan nan 0.00 0.34 0.33 0.41 0.21 0.18 0.76 1.20 1.30 1.43 1.03 0.93 1.53 1.85 1.41 1.19 0.76 0.49 0.36 1.26 0.95 0.88 0.95 1.01 1.23 1.70 1.28 0.29 0.10 0.14 0.11 0.09 0.08 0.17 0.25 0.23 0.25 0.12 0.13 0.19 0.23 0.32 0.37 0.36 0.34
nan nan nan nan nan nan nan nan nan nan nan 0.48 1.16 1.56 0.50 1.48 4.22 1.74 1.35 2.59 2.90 2.37 2.87 2.40 2.78 0.49 0.82 0.31 0.76 0.32 1.65 1.22 1.17 1.38 1.04 0.52 0.18 0.18 0.26 0.30 0.31 0.19 0.21 0.37 0.38 0.37 0.35 0.37 0.38 0.45 0.41 0.38 0.38 0.41
nan nan nan nan nan nan nan nan nan 0.01 1.40 1.39 2.30 4.85 1.68 2.02 1.10 3.90 2.85 2.54 1.26 0.91 1.26 0.80 2.46 1.15 1.35 0.89 0.06 1.79 0.86 0.71 1.52 0.91 0.97 0.66 0.34 0.64 0.40 0.38 0.68 0.57 0.58 0.42 0.63 0.49 0.39 0.39 0.40 0.43 0.48 0.45 0.49 0.49
nan nan nan nan nan nan nan nan nan 0.05 1.50 1.54 1.34 3.01 2.20 2.12 1.87 2.22 2.69 2.32 1.79 1.15 0.81 1.40 1.96 0.01 1.55 1.08 0.06 0.86 1.57 1.59 0.90 0.92 0.84 0.63 0.47 0.47 0.43 0.54 0.71 0.68 0.53 0.51 0.58 0.66 0.45 0.43 0.48 0.56 0.75 0.68 0.71 0.56
nan nan 0.24 nan nan nan nan nan 0.62 1.12 1.53 1.57 1.70 1.81 3.78 2.68 2.61 2.86 2.72 2.36 0.79 0.42 1.01 1.36 1.54 1.32 1.28 0.88 0.95 1.25 1.19 0.93 1.28 1.76 1.19 0.75 0.77 0.65 0.70 0.79 0.74 0.81 0.79 0.70 0.75 0.66 0.47 0.55 0.56 0.60 0.75 0.64 0.57 0.58
nan 0.50 nan nan nan nan nan 1.04 1.43 1.49 1.54 1.60 4.87 3.55 2.02 1.96 1.64 1.93 1.74 0.78 0.23 1.26 3.66 1.44 1.22 1.04 0.67 0.98 0.75 1.10 1.98 1.60 1.92 1.80 1.05 0.86 0.81 0.94 1.01 0.98 0.95 1.03 0.99 1.02 1.01 1.06 0.76 0.77 0.72 0.78 0.86 0.76 1.04 1.04
0.71 0.31 nan nan nan nan 1.85 2.22 1.14 1.06 1.44 0.92 1.44 2.58 1.57 1.29 1.71 1.83 1.38 0.41 0.58 0.96 1.37 1.37 0.65 1.06 1.41 1.00 1.68 1.37 1.19 1.70 1.43 1.19 0.79 0.91 1.08 1.34 1.28 1.16 1.11 1.15 1.17 1.17 1.10 1.09 1.08 1.05 0.95 0.96 0.98 0.87 0.99 1.01
0.53 0.30 nan nan 0.44 1.52 1.19 1.49 2.01 1.12 1.62 2.22 1.10 0.89 1.07 1.69 1.01 0.76 1.20 0.58 0.64 0.81 1.35 1.48 1.52 1.66 1.60 1.38 1.79 1.91 1.95 1.61 1.19 0.43 0.50 0.63 0.41 1.02 1.15 1.16 1.05 0.83 0.90 1.15 1.14 1.29 1.35 1.36 1.20 1.00 0.94 0.84 0.91 0.94
nan nan nan nan nan 1.00 1.25 1.41 1.61 1.11 2.17 1.06 1.56 1.93 0.98 0.85 1.05 2.00 2.03 0.92 0.72 2.08 1.83 1.90 2.67 2.33 1.21 1.18 0.94 1.22 0.95 0.62 0.89 1.59 1.09 0.44 0.40 0.92 1.15 1.27 0.95 0.91 1.08 1.18 1.39 1.20 1.14 1.05 0.95 1.06 1.18 0.99 1.19 1.16
nan nan nan 0.88 1.06 1.11 1.19 1.08 1.20 1.17 1.23 1.03 1.51 0.89 0.91 1.13 2.04 3.56 3.21 0.70 1.56 0.81 1.07 2.55 1.98 2.12 1.31 1.94 1.33 2.25 0.69 0.59 0.89 1.98 1.62 1.03 0.71 0.90 1.10 1.20 0.95 0.98 1.07 1.22 1.46 1.25 1.21 1.28 1.07 1.11 1.75 1.65 1.60 1.34
0.51 nan 0.94 0.65 0.67 1.03 1.10 1.01 1.14 1.01 1.24 1.90 1.09 1.80 2.02 3.49 3.36 3.00 1.46 1.99 1.07 1.75 1.40 1.29 1.83 2.25 2.51 2.80 3.11 3.02 2.89 2.09 1.55 1.13 1.22 1.04 1.08 1.00 1.35 1.60 1.56 1.93 1.91 2.10 1.75 1.99 1.52 1.14 1.24 1.27 1.47 1.68 1.06 1.01
nan 0.43 0.41 0.81 0.98 1.71 2.61 1.20 1.27 1.38 1.50 1.52 1.93 1.22 2.00 2.76 2.06 0.74 0.91 1.63 2.39 0.94 2.49 2.66 2.76 2.86 2.98 3.16 3.03 3.06 2.85 2.72 2.56 2.07 1.96 1.86 1.82 1.77 1.97 1.99 1.71 2.49 2.13 1.41 1.26 1.44 1.41 0.81 0.86 0.92 0.91 0.94 1.14 1.26
nan 0.41 0.45 0.85 1.39 2.39 1.43 1.61 1.20 1.38 1.31 1.73 1.28 1.27 1.67 2.56 1.01 1.20 1.23 2.65 2.11 1.27 2.15 2.78 2.85 2.99 2.95 2.98 3.06 3.16 2.97 2.93 2.96 2.62 2.41 2.28 1.71 2.13 1.85 2.05 1.94 1.75 1.67 1.39 1.33 1.36 1.00 1.35 0.91 0.95 0.96 1.39 1.86 1.58
1.81 2.19 1.05 3.93 1.37 1.69 1.23 1.35 1.47 1.47 1.12 1.30 1.21 1.30 2.18 2.29 1.52 1.87 1.29 3.15 1.97 2.42 1.78 2.62 2.52 1.36 3.50 3.77 1.39 2.62 2.65 2.75 1.72 2.46 2.29 2.11 2.02 1.90 1.76 1.47 1.30 1.19 1.34 2.20 2.23 2.06 2.07 1.69 1.28 1.29 1.11 1.65 1.68 1.49
3.65 1.77 3.23 2.04 2.23 1.44 1.28 1.26 1.25 1.36 1.34 1.20 1.54 1.60 3.09 2.04 1.31 1.76 1.58 2.19 2.58 2.57 3.26 3.63 4.01 2.31 1.88 1.60 1.85 1.62 2.25 2.48 2.41 2.55 1.76 1.85 1.66 2.78 2.55 1.57 1.49 1.24 1.29 1.87 2.39 2.89 2.30 1.33 1.84 1.38 1.48 1.40 1.38 1.74
3.19 2.17 1.71 1.54 1.43 1.31 1.72 1.74 1.64 1.52 1.20 1.17 1.77 1.56 1.64 1.42 1.24 1.39 1.32 1.01 1.29 2.34 1.67 1.63 2.22 1.75 1.53 1.67 1.63 2.24 2.08 2.08 1.92 1.82 1.56 1.53 1.37 1.45 1.76 2.06 1.42 1.30 1.50 1.67 1.93 2.73 2.75 2.05 1.52 1.53 1.59 1.50 2.28 1.64
1.47 1.49 1.45 2.72 1.47 1.99 1.75 1.68 1.47 1.24 1.27 1.28 1.74 1.20 1.24 1.17 1.69 1.57 1.14 0.76 1.82 1.38 1.46 1.90 1.53 1.58 1.75 1.42 1.73 1.86 1.71 1.74 1.44 1.35 1.48 1.34 1.31 1.24 1.33 1.39 1.22 1.19 0.87 0.90 0.91 0.87 1.66 1.66 2.07 1.68 1.54 1.71 1.52 1.28
1.74 1.93 1.43 1.53 1.68 1.28 1.42 1.61 1.75 1.65 0.94 2.19 1.91 1.26 1.54 1.43 3.11 3.14 1.56 1.17 1.87 1.56 2.45 2.55 2.34 2.83 2.08 1.92 1.91 2.20 1.86 1.76 1.66 1.27 1.29 1.32 1.27 1.38 1.12 1.30 1.43 1.14 1.06 1.79 0.88 0.70 0.87 1.24 1.65 1.74 1.70 1.42 1.28 1.89
1.80 2.11 1.50 1.38 1.33 1.60 2.07 2.07 2.98 2.69 1.54 1.68 1.97 1.25 1.34 2.33 2.76 1.50 2.68 2.71 2.53 3.16 3.21 3.11 3.02 3.60 2.85 2.20 2.21 1.54 2.44 2.67 1.74 1.48 1.93 1.51 1.71 1.46 1.69 1.74 1.48 1.31 1.11 2.15 0.65 0.79 0.57 0.99 0.95 1.36 1.25 1.29 1.11 1.19
1.64 2.85 1.78 1.53 1.68 2.64 2.76 2.89 3.09 2.65 2.50 3.74 3.55 3.71 3.03 3.62 1.96 1.91 1.41 2.17 2.59 3.14 3.12 3.25 3.61 3.83 2.55 1.85 3.09 2.70 1.67 2.10 1.46 1.19 1.32 1.36 1.25 2.36 1.72 1.21 1.19 2.24 2.18 1.43 1.41 1.35 0.82 0.82 1.38 1.68 1.44 1.25 1.16 1.06
2.27 3.21 1.87 1.38 2.42 3.14 2.96 3.35 3.30 3.17 3.04 3.06 3.37 3.36 3.27 2.58 1.85 1.84 1.14 2.39 2.42 2.22 1.17 2.48 2.49 1.64 1.76 1.51 1.42 1.50 1.06 1.31 1.21 0.70 0.81 0.80 1.21 1.08 1.24 1.06 1.71 1.69 1.33 0.86 0.90 0.95 0.94 1.57 1.36 1.28 1.38 1.19 1.04 0.84
3.45 2.92 2.94 1.99 3.50 2.73 2.92 3.01 2.26 3.46 2.41 3.06 2.53 2.57 2.71 1.70 1.09 1.44 0.60 2.17 2.06 1.97 1.91 2.14 2.38 2.30 1.16 1.12 1.18 1.27 0.91 1.42 1.57 0.79 1.08 0.76 0.37 0.50 1.24 1.49 1.61 1.47 0.87 0.96 0.87 0.82 0.85 0.83 1.01 0.93 0.97 0.99 0.97 0.82
SL_Ratio
nan nan nan nan nan nan nan nan nan nan nan nan nan nan nan nan nan nan nan nan 4.8 6.1 5.6 nan 5.0 5.7 5.5 6.5 7.7 6.8 8.0 7.1 7.0 7.3 8.2 4.7 8.0 7.7 7.7 7.9 7.4 8.3 9.1 9.4 9.3 9.2 9.6 5.7 5.9 10.1 8.5 6.4 6.1 6.4
nan nan nan nan nan nan nan nan nan nan nan nan nan nan nan nan nan nan 5.2 nan nan 5.1 5.8 0.0 nan nan nan 6.5 6.7 6.9 6.5 7.6 6.4 6.4 7.7 7.4 7.9 5.7 7.0 9.3 6.2 8.7 7.9 9.4 8.4 7.9 4.9 5.5 5.3 4.3 5.8 5.8 5.8 6.3
nan nan nan nan nan nan nan nan nan nan nan nan nan nan nan nan nan nan nan nan 3.8 5.3 6.4 7.4 7.9 nan nan nan nan 9.5 7.5 5.0 4.9 5.0 5.9 7.8 9.1 4.6 8.9 7.7 6.8 6.8 6.2 6.5 7.5 5.8 5.9 5.4 4.2 5.0 5.2 5.5 5.2 6.0
nan nan nan nan nan nan nan nan nan nan nan nan nan nan nan nan nan nan 5.0 nan 5.0 5.0 9.2 9.1 5.8 nan nan nan nan nan nan nan 6.3 5.6 8.1 8.3 9.3 6.0 8.7 7.4 6.9 5.3 4.6 5.6 6.8 4.3 5.0 5.0 nan 5.0 5.0 5.0 5.0 5.7
nan nan nan nan nan nan nan nan nan nan nan nan nan nan nan nan nan nan nan nan nan 7.0 9.2 9.4 8.1 nan nan nan nan nan nan nan 7.1 8.6 9.7 9.6 8.8 9.6 8.6 6.9 9.3 nan 5.0 8.2 8.6 nan nan 5.0 nan nan 5.0 5.3 7.2 7.3
nan nan nan nan nan nan nan nan nan nan nan nan nan nan nan nan nan nan 6.5 nan nan nan 7.6 9.7 8.1 8.4 7.6 5.0 7.5 nan nan nan 6.6 8.1 8.9 8.3 7.5 8.4 9.9 9.7 5.0 nan nan nan nan nan nan nan nan nan nan 7.5 7.4 7.4
nan nan nan nan nan nan nan nan nan nan nan nan nan nan nan nan nan 5.4 6.7 5.0 nan nan 7.8 9.7 9.6 8.0 7.8 8.1 7.9 nan nan 7.0 7.6 7.8 9.4 8.5 9.3 8.2 9.9 10.0 nan nan nan nan nan nan nan nan nan nan 7.8 7.7 7.8 7.7
nan nan nan nan nan nan nan nan nan nan nan nan nan nan nan nan nan 5.2 nan nan nan 4.4 6.7 9.8 9.4 9.5 9.3 8.4 9.4 nan nan 7.4 8.0 8.1 9.7 9.8 8.2 8.6 10.3 8.3 nan nan nan nan nan nan nan nan 8.3 8.2 8.2 8.2 8.3 8.2
nan nan nan nan nan nan nan nan nan nan nan nan nan nan nan 5.0 6.8 6.2 nan nan 5.0 6.5 9.4 9.5 9.3 9.3 nan 9.6 8.5 8.9 8.7 10.0 7.9 9.9 9.7 9.8 9.6 10.4 9.9 nan nan 16.7 10.1 10.1 10.0 9.9 9.8 9.6 9.4 9.2 8.9 8.9 8.9 8.5
nan nan nan nan nan nan nan nan nan nan nan nan 4.7 6.3 8.6 7.3 nan nan 5.9 7.9 7.9 7.6 7.9 9.6 9.7 9.5 5.0 9.8 9.5 9.8 9.7 9.7 9.8 9.6 10.0 9.9 9.8 9.8 10.0 10.0 10.0 10.0 10.0 10.0 10.0 10.0 10.0 10.0 10.0 9.7 9.6 9.1 8.8 8.8
nan nan nan nan nan nan nan nan nan nan nan 5.8 8.0 9.0 6.1 nan 7.3 8.3 9.7 9.9 9.8 9.9 9.6 9.6 9.7 9.8 9.1 9.4 9.5 8.7 10.0 9.9 10.7 9.7 9.7 9.8 9.8 9.7 10.0 10.0 nan nan nan 10.0 11.5 12.0 11.8 10.6 10.3 10.0 9.6 9.6 9.2 9.1
nan nan nan nan nan nan nan nan nan 5.0 5.7 5.9 7.1 5.0 5.6 8.0 9.4 10.1 10.2 10.3 10.1 9.8 9.6 9.7 9.8 9.8 9.9 9.7 9.8 9.9 10.5 10.0 10.8 9.9 10.0 10.2 10.0 10.0 10.0 10.0 10.0 10.0 10.1 10.5 10.5 10.3 10.7 10.3 10.1 10.3 10.1 9.7 9.4 9.1
nan nan nan nan nan nan nan nan nan nan nan 5.5 7.8 9.1 9.0 9.8 10.0 10.4 10.4 9.7 9.6 9.6 9.5 9.5 9.4 9.9 9.8 9.8 9.9 10.1 10.3 10.2 9.8 9.9 9.9 9.9 10.0 10.0 10.0 10.0 10.1 10.1 10.2 10.0 10.0 10.0 10.0 10.0 10.0 10.0 10.4 9.7 9.6 10.0
nan nan nan nan nan nan nan nan nan 5.2 5.2 8.8 9.7 9.8 10.1 10.3 9.9 9.3 9.5 9.5 9.8 9.8 9.8 9.9 9.6 9.8 9.8 10.0 9.9 10.2 10.1 10.2 10.6 10.5 9.9 9.9 10.0 10.0 10.1 10.0 10.0 10.0 10.0 10.0 10.0 10.0 10.0 10.1 10.1 10.0 10.2 10.3 10.6 11.1
nan nan nan nan nan nan nan nan nan 4.5 7.7 9.4 9.7 9.8 9.9 9.7 9.8 9.7 9.6 9.6 9.7 9.8 9.9 9.7 9.7 10.3 9.8 10.2 11.3 10.1 10.5 10.3 10.0 9.9 9.9 9.9 10.0 10.0 10.0 10.0 9.9 10.0 10.0 10.0 10.0 10.0 10.2 10.1 10.3 10.4 10.3 11.3 11.4 12.1
nan nan 6.9 nan nan nan nan nan 5.8 6.7 8.7 9.6 10.3 10.2 9.5 9.6 9.7 9.6 9.6 9.7 10.0 10.4 10.2 10.1 10.1 10.5 10.3 10.2 10.4 10.0 10.1 9.9 9.9 9.8 9.9 9.9 9.9 10.0 9.9 9.9 10.0 10.0 10.0 10.0 10.1 10.2 10.5 10.4 10.8 11.6 11.8 12.3 12.5 12.8
nan 7.9 nan nan nan nan nan 8.1 8.8 9.4 10.0 11.0 9.3 9.6 9.8 9.8 9.8 9.8 9.8 10.0 10.0 9.9 9.5 10.1 10.7 10.1 10.0 10.5 10.3 9.9 9.8 9.9 9.8 9.8 9.9 9.9 9.9 9.9 9.9 10.0 9.9 9.9 10.0 10.1 10.2 10.3 10.7 11.4 12.3 12.2 12.2 12.5 12.1 12.2
8.9 4.6 nan nan nan nan 8.7 9.3 10.5 11.1 11.5 11.0 10.2 9.7 9.9 9.9 9.9 9.8 9.9 10.1 10.2 10.2 10.1 10.3 10.2 10.4 10.1 10.1 9.9 9.9 9.9 9.9 9.9 9.9 9.9 9.9 9.9 9.9 9.9 10.0 10.0 10.0 10.3 10.4 10.8 11.0 11.2 11.6 11.7 12.3 12.5 12.7 12.3 12.3
9.3 4.6 nan nan 5.8 9.4 10.0 10.7 10.1 10.8 10.1 9.8 10.2 10.3 10.2 10.0 10.2 10.3 10.0 10.2 10.2 10.2 10.2 10.2 10.1 10.0 9.9 9.9 9.9 9.8 9.9 9.9 9.9 10.1 10.0 10.0 10.0 10.0 10.0 10.1 10.3 10.6 11.0 11.3 11.2 11.3 11.3 11.5 12.0 12.3 12.2 12.7 11.8 11.9
nan nan nan nan nan 10.0 11.0 10.6 10.0 10.3 10.0 10.3 10.0 10.0 10.4 10.4 10.2 9.9 10.0 10.2 10.4 10.0 10.1 10.1 9.8 9.8 9.9 9.9 9.9 9.9 10.0 10.0 10.1 9.9 9.9 10.4 10.2 10.3 10.3 10.7 10.9 11.5 11.6 11.6 11.5 5.9 11.9 12.1 12.1 11.9 12.0 12.3 11.4 11.4
nan nan nan 9.8 9.8 10.1 10.2 10.8 10.4 10.2 10.4 10.2 10.2 10.3 10.4 10.3 10.0 9.7 9.7 10.0 9.9 10.0 9.9 9.8 9.9 9.9 9.9 9.9 9.9 9.9 10.1 10.1 10.1 10.0 10.1 10.4 10.7 11.2 11.3 11.2 12.0 12.3 12.3 12.2 11.8 12.0 8.7 12.1 12.2 11.9 11.2 11.2 11.2 11.2
10.1 nan 10.5 10.3 10.1 10.1 10.2 10.2 10.2 10.4 10.0 10.0 10.2 10.1 10.0 9.7 9.7 9.7 9.9 9.8 9.9 9.9 9.9 10.0 9.9 9.9 9.8 9.8 9.8 9.8 9.9 10.0 10.2 9.6 4.2 6.0 11.2 11.4 11.2 11.4 11.6 11.3 11.4 11.3 11.5 11.3 11.6 12.1 11.8 11.8 11.3 10.9 11.4 11.3
nan 9.9 10.4 10.6 10.3 9.9 10.0 9.9 10.1 10.1 10.2 10.1 9.9 10.1 9.9 9.8 9.8 10.0 9.9 9.9 9.8 10.0 9.9 9.9 9.9 9.9 9.9 9.8 9.9 9.9 10.0 10.0 10.1 10.3 10.5 10.7 10.9 11.1 11.0 11.0 11.4 10.8 10.9 11.2 11.6 11.1 11.1 7.1 11.1 11.1 11.1 10.8 10.4 10.3
nan 10.0 10.1 10.0 10.0 10.0 9.9 9.9 10.0 10.0 10.0 9.9 10.0 10.0 9.9 9.8 10.0 9.9 9.9 9.8 9.9 10.0 9.9 9.9 9.9 9.9 9.9 9.9 10.0 10.0 10.1 10.1 10.2 10.3 10.4 10.6 10.9 10.7 10.9 10.8 10.7 10.5 10.6 10.7 10.4 10.4 10.4 10.1 5.1 10.1 10.0 10.0 9.9 10.0
9.9 9.9 9.9 9.9 9.9 9.9 10.0 9.9 9.9 9.9 10.0 10.0 10.0 10.0 9.9 9.9 9.9 9.9 9.9 9.8 9.9 9.9 10.0 9.9 9.9 10.2 9.8 9.8 10.4 10.1 10.2 10.2 10.7 10.3 10.4 10.5 10.6 10.5 10.3 10.2 10.0 10.1 10.0 9.8 9.8 9.8 9.8 9.9 9.9 9.9 9.9 9.9 9.9 9.9
10.0 9.9 9.9 9.9 9.9 9.9 10.0 10.0 10.0 10.0 10.0 10.0 10.0 10.0 9.8 9.9 9.9 9.9 9.9 9.9 9.9 9.9 9.8 9.8 9.7 10.0 10.2 10.3 10.3 10.3 10.2 10.2 10.4 10.2 10.4 10.2 10.0 9.8 9.8 9.9 9.9 9.9 9.9 9.8 9.8 9.8 9.8 9.9 9.9 9.9 9.9 9.9 5.7 9.9
10.0 9.9 9.9 9.9 9.9 10.0 9.9 9.9 9.9 9.9 10.0 10.0 10.0 10.0 10.0 9.9 9.9 9.9 10.0 10.0 10.0 9.9 10.0 10.0 10.0 10.1 10.2 10.3 10.4 10.1 10.1 10.1 10.1 10.0 9.9 9.9 9.9 9.9 9.9 9.9 9.9 10.0 9.9 9.9 9.9 9.8 9.8 9.9 9.9 9.9 9.9 9.9 9.9 9.9
9.9 9.9 9.9 9.8 9.9 9.9 9.9 9.9 9.9 10.0 10.0 10.0 9.9 10.0 10.0 9.9 9.9 9.9 10.0 10.1 9.9 10.0 10.0 10.0 10.1 10.1 10.1 10.1 9.9 9.9 9.9 9.9 9.9 9.9 9.9 9.9 9.9 9.9 9.9 9.9 9.9 3.0 10.0 10.0 10.0 10.0 9.9 9.9 9.9 9.9 9.9 9.9 9.9 9.9
9.9 9.9 9.9 9.9 9.9 9.9 9.9 9.9 9.9 9.9 10.0 9.9 9.9 10.0 9.9 9.9 9.8 9.8 9.9 10.0 9.9 10.0 9.8 9.8 9.9 9.8 9.9 9.9 9.9 9.8 9.9 9.9 9.9 9.9 9.9 9.9 9.9 9.9 9.9 9.9 9.9 9.9 9.9 9.9 3.0 5.2 9.2 10.0 10.0 9.9 9.9 9.9 9.9 9.9
9.9 9.9 9.9 9.9 9.9 9.9 9.9 9.9 9.8 9.9 10.0 9.9 9.9 9.9 9.9 9.8 9.8 9.9 9.8 9.8 9.8 9.7 9.7 9.7 9.8 9.7 9.8 9.8 9.8 9.9 9.8 9.8 9.9 9.9 9.9 9.9 9.9 9.9 9.9 9.9 9.9 9.9 10.0 9.9 10.0 10.0 4.8 9.6 7.2 9.9 9.9 9.9 10.0 10.0
9.9 9.9 9.9 9.9 9.9 9.9 9.9 9.9 9.9 9.9 9.9 9.8 9.8 9.8 9.8 9.8 9.9 9.9 9.9 9.9 9.8 9.8 9.8 9.8 9.8 9.8 9.9 9.9 9.8 9.9 9.9 9.9 9.9 9.9 9.9 9.9 9.9 9.9 9.9 9.9 9.9 9.9 9.9 10.0 9.9 9.9 10.0 10.0 9.9 9.9 9.9 10.0 9.9 10.0
9.9 9.9 9.9 9.9 9.8 9.8 9.9 9.9 9.9 9.9 9.9 9.9 9.8 9.9 9.8 9.9 9.9 9.9 9.9 9.9 9.9 9.9 3.9 9.9 9.9 9.9 9.9 9.9 9.9 9.9 3.8 9.9 9.9 10.0 10.0 10.0 9.9 9.9 9.9 9.9 9.9 9.9 10.0 10.0 10.0 10.0 10.0 10.0 10.0 10.0 10.0 10.0 10.0 10.0
9.8 9.9 9.9 9.9 9.8 9.9 9.9 9.8 9.9 9.8 9.9 9.9 9.9 9.9 9.9 9.9 10.0 9.9 10.0 9.9 9.9 9.9 9.9 9.8 9.8 9.9 9.9 9.9 9.9 9.9 7.1 9.9 9.5 3.0 3.0 3.0 3.0 6.4 10.0 9.9 9.9 9.9 10.0 10.0 10.0 10.0 10.0 10.0 10.0 10.0 10.0 10.0 10.0 10.0